Regional Weather Roundup
Issued by NWS

Home | Current Version | Previous Version | Graphics & Text | Print | Product List | Glossary Off
Versions: 1 2 3 4 5 6 7 8 9 10 11 12 13 14 15 16 17 18 19 20 21 22 23 24 25 26 27 28 29 30 31 32 33 34 35 36 37 38 39 40 41 42 43 44 45 46 47 48 49 50

324
ASUS43 KMKX 251200
RWRWI

WISCONSIN REGIONAL WEATHER ROUNDUP
NATIONAL WEATHER SERVICE MILWAUKEE/SULLIVAN WI
600 AM CST SAT FEB 25 2017

NOTE: "FAIR" INDICATES FEW OR NO CLOUDS BELOW 12,000 FEET WITH NO
SIGNIFICANT WEATHER AND/OR OBSTRUCTIONS TO VISIBILITY.

WIZ001-002-006>008-014>016-023>028-251300-
NORTHWEST WISCONSIN

CITY           SKY/WX    TMP DP  RH WIND       PRES   REMARKS
SUPERIOR ARPT  PTCLDY    10   4  77 NW12G17   29.87F WCI  -5
ASHLAND        CLOUDY    14   7  73 NW12      29.78R WCI   0
6HR MIN TEMP:  14; 6HR MAX TEMP:  19;

HAYWARD        CLOUDY    12   3  67 VRB7G20   29.78R WCI   1
6HR MIN TEMP:  12; 6HR MAX TEMP:  18;

SIREN          CLEAR     11   3  70 NW14G20   29.86R WCI  -4
CUMBERLAND     PTCLDY    12   3  67 NW17G25   29.81R WCI  -5
RICE LAKE      MOCLDY    13   4  69 NW12G20   29.83R WCI  -1
CHETEK         MOCLDY    11   4  71 NW6       29.81R WCI   2
LADYSMITH      CLOUDY    13   6  72 NW18G26   29.76S WCI  -4
EAU CLAIRE     NOT AVBL
MENOMONIE      CLEAR     13   3  65 W13       29.84R WCI  -1
NEW RICHMOND   PTCLDY    14   4  65 NW14G22   29.87R WCI  -1
OSCEOLA        CLEAR     14   5  66 NW9       29.91R WCI   2
$$

WIZ003>005-009-010-017-018-251300-
NORTH CENTRAL WISCONSIN

CITY           SKY/WX    TMP DP  RH WIND       PRES   REMARKS
MANITOWISH WTR LGT SNOW  13   9  87 NW13G21   29.62S WCI  -2
ARBOR VITAE    LGT SNOW  17  11  80 NW17G29     N/A  WCI   1
WOODRUFF       LGT SNOW  17  11  80 NW17G29     N/A  WCI   1
RHINELANDER    MIX PCPN  15   8  73 NW15G28   29.61R WCI   0
6HR MIN TEMP:  15; 6HR MAX TEMP:  17; 6HR PCP: TRACE;

EAGLE RIVER    LGT SNOW  14   9  81 NW7       29.58S WCI   4
LAND O LAKES   LGT SNOW  15  10  83 NW12G20   29.59S WCI   1
PHILLIPS       FLURRIES  11   6  79 NW9       29.68R WCI  -2
TOMAHAWK       LGT SNOW  13   8  81 NW9       29.65R WCI   1
MEDFORD        CLOUDY    12   5  72 NW9       29.67R WCI   0
MERRILL        NOT AVBL
$$

WIZ029-030-035-036-043>047-251300-
CENTRAL WISCONSIN

CITY           SKY/WX    TMP DP  RH WIND       PRES   REMARKS
WAUSAU         CLOUDY    15   8  73 NW13      29.66R WCI   1
6HR MIN TEMP:  15; 6HR MAX TEMP:  18; 6HR PCP: TRACE;

MOSINEE        LGT SNOW  16  12  86 NW18      29.68R WCI  -1
MARSHFIELD     LGT SNOW  13   5  70 NW22G30   29.69R WCI  -6
6HR MIN TEMP:  13; 6HR MAX TEMP:  17; 6HR PCP: TRACE;

STEVENS POINT  LGT SNOW  15  11  84 W10       29.68R WCI   2
WAUPACA        LGT SNOW  20  15  82 W9        29.68R WCI   9
WAUTOMA        LGT SNOW  16  13  88 W14       29.71R FOG     WCI   2
6HR MIN TEMP:  16; 6HR MAX TEMP:  20; 6HR PCP: TRACE;

WISC RAPIDS    CLOUDY    16   7  67 NW18G26   29.73R WCI   0
6HR MIN TEMP:  16; 6HR MAX TEMP:  19; 6HR PCP: TRACE;

CAMP DOUGLAS   CLOUDY    16   7  67 NW12      29.76R WCI   3
$$

WIZ011>013-019>022-031-037>040-048>050-251300-
NORTHEAST WISCONSIN

CITY           SKY/WX    TMP DP  RH WIND       PRES   REMARKS
ANTIGO         LGT SNOW  15  11  86 NW12G17   29.59S WCI   1
SHAWANO        LGT SNOW  20  16  83 CALM      29.64R
OCONTO         CLOUDY    19  15  86 NW8       29.60R WCI   9
STURGEON BAY   LGT SNOW  19  17  92 NW15      29.58R FOG     WCI   5
6HR MIN TEMP:  19; 6HR MAX TEMP:  23; 6HR PCP: TRACE;

GREEN BAY      LGT SNOW  20  17  88 NW17      29.63R FOG     WCI   5
6HR MIN TEMP:  20; 6HR MAX TEMP:  22; 6HR PCP:  0.01;

MANITOWOC      LGT SNOW  19  18  93 NW16G23   29.61R FOG     WCI   5
APPLETON       LGT SNOW  18  14  86 NW12G17   29.63R WCI   5
CLINTONVILLE   LGT SNOW  19  14  79 NW9       29.65R WCI   9
OSHKOSH        LGT SNOW  19  15  84 W16       29.66R FOG     WCI   4
6HR MIN TEMP:  19; 6HR MAX TEMP:  22; 6HR PCP: TRACE;

$$

WIZ032>034-041-042-053>061-251300-
SOUTHWEST WISCONSIN

CITY           SKY/WX    TMP DP  RH WIND       PRES   REMARKS
LA CROSSE      CLOUDY    18   9  68 NW18G33   29.84R WCI   2
6HR MIN TEMP:  18; 6HR MAX TEMP:  22; 6HR PCP: TRACE;

SPARTA         PTCLDY    15   9  75 NW12G21   29.81R WCI   2
VIROQUA        CLOUDY    15   8  75 NW17G23   29.77R WCI  -1
BOSCOBEL       MOCLDY    20   8  60 NW14G26   29.83R WCI   7
6HR MIN TEMP:  20; 6HR MAX TEMP:  22; 6HR PCP: TRACE;

PRAIRIE DU CHI PTCLDY    19   9  65 NW14G23   29.84R WCI   5
PLATTEVILLE    PTCLDY    19  17  90 CALM      29.79R
$$

WIZ056-057-062-063-064-067-068-251300-
SOUTH CENTRAL WISCONSIN

CITY           SKY/WX    TMP DP  RH WIND       PRES   REMARKS
REEDSBURG      FLURRIES  17  14  88 W9        29.75R WCI   5
6HR MIN TEMP:  17; 6HR MAX TEMP:  20;

BARABOO/DELLS  LGT SNOW  17  13  86 NW7       29.73R WCI   7
LONE ROCK      NOT AVBL
MINERAL POINT  FLURRIES  21  18  86 CALM      29.75R
MADISON        LGT SNOW  18  13  80 NW14G21   29.73R BLWGSNOWWCI   4
6HR MIN TEMP:  18; 6HR MAX TEMP:  22; 6HR PCP:  0.03;

MIDDLETON      CLOUDY    19  16  86 NW9       29.73R WCI   8
WATERTOWN      LGT SNOW  19  16  91 NW15      29.68R WCI   4
MONROE         PTCLDY    19  16  86 NW15G24   29.73R FOG     WCI   5
JANESVILLE     MOCLDY    21  18  86 NW15      29.72R WCI   8
$$

WIZ051-052-058>065-066-070>072-251300-
SOUTHEAST WISCONSIN

CITY           SKY/WX    TMP DP  RH WIND       PRES   REMARKS
MILWAUKEE      FLURRIES  22  16  78 W13       29.66R WCI  10
6HR MIN TEMP:  22; 6HR MAX TEMP:  28; 6HR PCP:  0.01;

WAUKESHA       LGT SNOW  18  16  93 W17G24    29.67R WCI   2
MILWAUKEE/TIMM LGT SNOW  21  16  79 NW17      29.66R WCI   7
RACINE         LGT SNOW  22  16  78 NW15G22   29.68R WCI   9
6HR MIN TEMP:  22; 6HR MAX TEMP:  28; 6HR PCP: TRACE;

KENOSHA        LGT SNOW  22  16  78 W20G26    29.67R WCI   7
6HR MIN TEMP:  22; 6HR MAX TEMP:  29; 6HR PCP: TRACE;

FOND DU LAC    LGT SNOW  19  13  77 NW20G25   29.66R WCI   3
6HR MIN TEMP:  19; 6HR MAX TEMP:  23; 6HR PCP: TRACE;

SHEBOYGAN      LGT SNOW  20  15  81 NW14      29.62R WCI   7
6HR MIN TEMP:  20; 6HR MAX TEMP:  23; 6HR PCP:  0.01;

WEST BEND      LGT SNOW  19  19 100 NW5       29.63R WCI  13
JUNEAU         LGT SNOW  17  14  88 NW6       29.68R WCI   9
$$

LSZ147-162-251300-
LAKE SUPERIOR

STATION/POSITION TIME  TEMP    WIND        PRES    WAVE
                       AIR SEA DIR/SP/G            HT/PER
                 (UTC) (F)     (DEG/KT/KT) (MB)    (FT/S)
DEVILS ISLAND    1100   18     330/ 20/ 22 1009.0S
PORT WING        1130   15     310/ 15/ 21 1009.8S
SAXON HARBOR     1140   18     270/  9/ 23 1007.5R
$$

LMZ867-665-643>646-251300-
LAKE MICHIGAN

STATION/POSITION TIME  TEMP    WIND        PRES    WAVE
                       AIR SEA DIR/SP/G            HT/PER
                 (UTC) (F)     (DEG/KT/KT) (MB)    (FT/S)
CHAMBERS ISLAND  1040   21     300/  2/  3 1000.0R
NORTHPORT PIER   1140   22     310/  2/  3 1000.0R
SISTER BAY       1105   21        CALM       N/A
KEWAUNEE LAKESHO 1130   20     310/ 12/ 19 1001.2R
SHEBOYGAN LAKESH 1100   21     290/  6/  7 1002.8R
PORT WASHINGTON  1140   21     300/ 11/ 18 1004.7R
MILWAUKEE LAKESH 1130   22     300/ 13/ 19   N/A
KENOSHA   LAKESH 1100   23     300/ 13/ 21 1004.4
$$

TC  - TEMPERATURE IN CELSIUS
VSB - VISIBILITY IN STATUTE MILES
WCI - WIND CHILL INDEX
HX  - HEAT INDEX





USA.gov is the U.S. government's official web portal to all federal, state and local government web resources and services.